TimeEDT,TemperatureF,Dew PointF,Humidity,Sea Level PressureIn,VisibilityMPH,Wind Direction,Wind SpeedMPH,Gust SpeedMPH,PrecipitationIn,Events,Conditions,WindDirDegrees,DateUTC
12:35 AM,46.4,44.6,93,30.16,10.0,North,4.6,-,0.02,Rain,Light Rain,360,2012-10-27 04:35:00
12:54 AM,46.9,44.1,90,30.16,10.0,North,8.1,-,0.02,Rain,Light Rain,350,2012-10-27 04:54:00
1:06 AM,46.4,44.6,93,30.16,10.0,North,4.6,-,0.00,Rain,Light Rain,360,2012-10-27 05:06:00
1:37 AM,46.4,42.8,87,30.15,7.0,NNW,6.9,-,0.00,Rain,Light Rain,340,2012-10-27 05:37:00
1:54 AM,46.0,43.0,89,30.15,3.0,North,6.9,-,0.03,Rain,Light Rain,350,2012-10-27 05:54:00
2:01 AM,46.4,42.8,87,30.13,3.0,North,6.9,-,0.02,Rain,Light Rain,350,2012-10-27 06:01:00
2:54 AM,45.0,43.0,93,30.12,5.0,NNE,10.4,-,0.11,Rain,Light Rain,30,2012-10-27 06:54:00
3:16 AM,46.4,42.8,87,30.12,7.0,North,5.8,-,0.01,Rain,Light Rain,360,2012-10-27 07:16:00
3:54 AM,46.0,43.0,89,30.12,4.0,North,5.8,-,0.03,Rain,Light Rain,360,2012-10-27 07:54:00
4:54 AM,46.0,43.0,89,30.11,5.0,North,5.8,-,0.07,Rain,Light Rain,360,2012-10-27 08:54:00
5:09 AM,46.4,42.8,87,30.09,6.0,North,5.8,-,0.03,Rain,Light Rain,10,2012-10-27 09:09:00
5:54 AM,46.0,43.0,89,30.09,8.0,NNE,6.9,-,0.03,Rain,Light Rain,30,2012-10-27 09:54:00
6:54 AM,46.0,44.1,93,30.08,3.0,NNE,6.9,-,0.01,Rain,Light Rain,20,2012-10-27 10:54:00
7:54 AM,46.9,45.0,93,30.07,2.5,North,5.8,-,0.01,Rain,Light Rain,10,2012-10-27 11:54:00
8:25 AM,48.2,44.6,87,30.06,2.0,North,8.1,-,0.02,Rain,Light Rain,10,2012-10-27 12:25:00
8:45 AM,46.4,44.6,93,30.06,1.8,NNE,10.4,-,0.03,Rain,Light Rain,20,2012-10-27 12:45:00
8:54 AM,46.9,45.0,93,30.08,2.0,NNE,11.5,16.1,0.03,Rain,Light Rain,20,2012-10-27 12:54:00
9:23 AM,46.4,44.6,93,30.06,1.8,North,8.1,-,0.01,Rain,Light Rain,10,2012-10-27 13:23:00
9:54 AM,48.0,46.0,93,30.07,1.5,NNE,9.2,16.1,0.02,Rain,Light Rain,20,2012-10-27 13:54:00
10:10 AM,48.2,46.4,93,30.05,2.5,NNE,9.2,-,0.01,Rain,Light Rain,20,2012-10-27 14:10:00
10:31 AM,48.2,44.6,87,30.05,7.0,NNE,12.7,18.4,0.01,Rain,Light Rain,20,2012-10-27 14:31:00
10:54 AM,48.0,45.0,89,30.06,10.0,NNE,11.5,16.1,0.02,Rain,Light Rain,20,2012-10-27 14:54:00
11:18 AM,48.2,44.6,87,30.05,1.5,North,9.2,17.3,0.00,Rain,Light Rain,10,2012-10-27 15:18:00
11:54 AM,46.9,45.0,93,30.05,1.8,NNE,11.5,-,0.03,Rain,Light Rain,30,2012-10-27 15:54:00
12:10 PM,46.4,44.6,93,30.03,4.0,NNE,11.5,-,0.01,Rain,Light Rain,20,2012-10-27 16:10:00
12:22 PM,46.4,44.6,93,30.03,2.0,North,9.2,-,0.01,Rain,Light Rain,360,2012-10-27 16:22:00
12:54 PM,46.9,45.0,93,30.03,1.2,North,8.1,-,0.02,Rain,Light Rain,10,2012-10-27 16:54:00
1:10 PM,46.4,44.6,93,30.01,2.5,NNE,10.4,-,0.02,Rain,Light Rain,20,2012-10-27 17:10:00
1:29 PM,46.4,44.6,93,29.99,5.0,NNE,9.2,17.3,0.03,Rain,Light Rain,20,2012-10-27 17:29:00
1:54 PM,46.9,45.0,93,30.01,2.0,North,11.5,-,0.03,Rain,Light Rain,360,2012-10-27 17:54:00
2:16 PM,46.4,44.6,93,29.99,1.5,North,10.4,-,0.01,Rain,Light Rain,360,2012-10-27 18:16:00
2:54 PM,48.0,45.0,89,29.99,2.0,North,10.4,-,0.05,Rain,Light Rain,350,2012-10-27 18:54:00
3:34 PM,46.4,44.6,93,29.99,3.0,North,12.7,-,0.04,Rain,Light Rain,350,2012-10-27 19:34:00
3:54 PM,46.9,44.1,90,30.01,2.5,North,17.3,23.0,0.05,Rain,Light Rain,350,2012-10-27 19:54:00
4:09 PM,46.4,44.6,93,30.00,1.5,North,17.3,23.0,0.01,Rain,Light Rain,350,2012-10-27 20:09:00
4:18 PM,46.4,44.6,93,30.01,3.0,North,11.5,-,0.01,Rain,Light Rain,350,2012-10-27 20:18:00
4:31 PM,46.4,44.6,93,30.01,2.5,North,17.3,23.0,0.02,Rain,Light Rain,350,2012-10-27 20:31:00
4:54 PM,46.9,44.1,90,30.04,4.0,North,12.7,-,0.03,Rain,Light Rain,350,2012-10-27 20:54:00
5:54 PM,46.0,44.1,93,30.06,7.0,North,11.5,-,0.00,Rain,Light Rain,350,2012-10-27 21:54:00
6:17 PM,46.4,42.8,87,30.05,2.0,North,13.8,20.7,0.00,Rain,Light Rain,350,2012-10-27 22:17:00
6:30 PM,44.6,42.8,93,30.06,3.0,NNW,12.7,-,0.01,Rain,Rain,340,2012-10-27 22:30:00
6:54 PM,45.0,42.1,90,30.09,4.0,North,15.0,-,0.04,Rain,Rain,350,2012-10-27 22:54:00
7:54 PM,45.0,42.1,90,30.10,10.0,North,10.4,-,0.05,Rain,Light Rain,350,2012-10-27 23:54:00
8:54 PM,44.1,42.1,93,30.09,10.0,North,8.1,16.1,0.01,Rain,Light Rain,10,2012-10-28 00:54:00
9:54 PM,44.1,41.0,89,30.10,10.0,North,9.2,-,0.00,,Overcast,10,2012-10-28 01:54:00
10:54 PM,44.1,41.0,89,30.10,10.0,North,6.9,-,N/A,,Overcast,10,2012-10-28 02:54:00
11:24 PM,44.6,41.0,87,30.09,10.0,North,8.1,-,N/A,,Overcast,350,2012-10-28 03:24:00
11:54 PM,44.1,39.9,85,30.09,10.0,North,11.5,-,N/A,,Overcast,350,2012-10-28 03:54:00